Weather History for KMTH - September, 2013

Change the Weather History Date:

Monday, September 9, 2013

  Actual Average Record
Temperature  
Mean Temperature 86 °F 84 °F  
Max Temperature 91 °F 90 °F 94 °F (2011)
Min Temperature 81 °F 79 °F 72 °F (2007)
Degree Days  
Heating Degree Days 0 0  
Month to date heating degree days 0 0  
Since 1 July heating degree days 0 0  
Cooling Degree Days 21 19  
Month to date cooling degree days 190 174  
Year to date cooling degree days 3911 3560  
Growing Degree Days 36 (Base 50)    
Moisture  
Dew Point 73 °F    
Average Humidity 69    
Maximum Humidity 79    
Minimum Humidity 59    
Precipitation  
Precipitation 0.00 in 0.28 in 2.21 in (2002)
Month to date precipitation 0.13 2.39  
Year to date precipitation 39.36 31.21  
Snow  
Snow 0.00 in - - ()
Month to date snowfall 0.0  
Since 1 July snowfall 0.0  
Since 1 September snowfall 0.0  
Snow Depth 0.00 in    
Sea Level Pressure  
Sea Level Pressure 29.94 in    
Wind  
Wind Speed 7 mph (East)    
Max Wind Speed 13 mph    
Max Gust Speed 18 mph    
Visibility 10 miles    
Events      
T = Trace of Precipitation, MM = Missing Value Source: NWS Daily Summary

Daily Weather History Graph

Daily Weather History Graph

Search for Another Location

Airport or City:

Trip Planner

Search our weather history database for the weather conditions in past years. The results will help you decide how hot, cold, wet, or windy it might be!

Date:

Astronomy

Sep. 09, 2013 Rise Set
Actual Time 7:08 AM EDT 7:34 PM EDT
Civil Twilight 6:45 AM EDT 7:57 PM EDT
Nautical Twilight 6:18 AM EDT 8:23 PM EDT
Astronomical Twilight 5:51 AM EDT 8:50 PM EDT
Moon 10:56 AM EDT (9/9) 10:23 PM EDT (9/9)
Length of Visible Light 13h 11m
Length of Day
12h 25m
Waxing Crescent, 19% of the Moon is Illuminated
Sep 9
Waxing Crescent
Sep 12
First Quarter
Sep 19
Full
Sep 26
Last Quarter
Oct 4
New

Hourly Weather History & Observations

Time (EDT) Temp. Heat Index Dew Point Humidity Pressure Visibility Wind Dir Wind Speed Gust Speed Precip Events Conditions
12:53 AM 81.0 °F 86.2 °F 73.9 °F 79% 29.93 in 10.0 mi NNE 4.6 mph - N/A   Clear
1:53 AM 82.0 °F 87.4 °F 73.0 °F 74% 29.91 in 10.0 mi East 4.6 mph - N/A   Clear
2:53 AM 82.0 °F 86.7 °F 72.0 °F 71% 29.89 in 10.0 mi East 4.6 mph - N/A   Clear
3:53 AM 82.9 °F 88.0 °F 72.0 °F 69% 29.89 in 10.0 mi East 4.6 mph - N/A   Clear
4:53 AM 82.0 °F 87.4 °F 73.0 °F 74% 29.89 in 10.0 mi East 4.6 mph - N/A   Clear
5:53 AM 82.9 °F 88.0 °F 72.0 °F 69% 29.90 in 10.0 mi East 4.6 mph - N/A   Clear
6:53 AM 82.9 °F 89.4 °F 73.9 °F 74% 29.91 in 10.0 mi ENE 3.5 mph - N/A   Partly Cloudy
7:53 AM 82.9 °F 89.4 °F 73.9 °F 74% 29.93 in 10.0 mi East 5.8 mph - N/A   Clear
8:53 AM 84.0 °F 90.2 °F 73.0 °F 69% 29.95 in 10.0 mi East 5.8 mph - N/A   Clear
9:53 AM 84.0 °F 91.2 °F 73.9 °F 72% 29.96 in 10.0 mi East 6.9 mph - N/A   Overcast
10:53 AM 87.1 °F 94.5 °F 73.0 °F 63% 29.98 in 10.0 mi ENE 9.2 mph - N/A   Partly Cloudy
11:53 AM 87.1 °F 94.5 °F 73.0 °F 63% 29.98 in 10.0 mi East 8.1 mph - N/A   Scattered Clouds
12:53 PM 84.9 °F 92.1 °F 73.9 °F 69% 29.97 in 10.0 mi East 9.2 mph - N/A   Scattered Clouds
1:53 PM 90.0 °F 100.2 °F 75.0 °F 61% 29.96 in 10.0 mi East 9.2 mph - N/A   Clear
2:53 PM 90.0 °F 100.2 °F 75.0 °F 61% 29.93 in 10.0 mi ESE 5.8 mph - N/A   Partly Cloudy
3:53 PM 89.1 °F 98.0 °F 73.9 °F 61% 29.94 in 10.0 mi East 6.9 mph - N/A   Clear
4:53 PM 89.1 °F 97.0 °F 73.0 °F 59% 29.92 in 10.0 mi East 6.9 mph - N/A   Clear
5:53 PM 87.1 °F 95.4 °F 73.9 °F 65% 29.93 in 10.0 mi East 10.4 mph - N/A   Clear
6:53 PM 84.9 °F 90.7 °F 72.0 °F 65% 29.94 in 10.0 mi East 6.9 mph - N/A   Clear
7:53 PM 84.0 °F 89.6 °F 72.0 °F 67% 29.95 in 10.0 mi East 6.9 mph - N/A   Clear
8:53 PM 84.0 °F 90.2 °F 73.0 °F 69% 29.95 in 10.0 mi East 6.9 mph - N/A   Clear
9:53 PM 84.0 °F 91.2 °F 73.9 °F 72% 29.96 in 10.0 mi East 8.1 mph - N/A   Clear
10:53 PM 82.9 °F 88.8 °F 73.0 °F 72% 29.97 in 10.0 mi East 5.8 mph - N/A   Clear
11:53 PM 82.9 °F 88.0 °F 72.0 °F 69% 29.96 in 10.0 mi East 6.9 mph - N/A   Clear